Tracking 18843 objects as of 20-November-2017
HD Live streaming from Space Station
objects crossing your sky now

SERT 2

Track SERT 2 now!
10-day predictions
SERT 2 is classified as:


NORAD ID: 4327
Int'l Code: 1970-009A
Perigee: 1,044.7 km
Apogee: 1,052.0 km
Inclination: 99.3 °
Period: 106.0 minutes
Semi major axis: 7419 km
RCS: 5.0507 m2 (large)
Launch date: February 4, 1970
Source: United States (US)
Launch site: AIR FORCE WESTERN TEST RANGE (AFWTR)
aabbcc
Your satellite tracking list
Your tracking list is empty




NASA's NSSDC Master Catalog

Two Line Element Set (TLE):
1  4327U 70009A   17323.90515169 +.00000000 +00000-0 +57589-4 0  9992
2  4327 099.3059 049.5356 0004925 014.5161 098.5920 13.58470340368222
Source of the keplerian elements: AFSPC